• Join FlightAware (Why Join?)
  • Login
  • US Flag 
01:46AM EST


 

Airport Tracker/Info


-or-


 

Live Flight TrackerFlight Track Log ✈ EJA312 ✈ 21-Oct-2013 ✈ KHOU - KAPF

Flight Track Log - Related Links

Times and Time Zones

All times are in EDT time to prevent confusion due to time zone crossing. See the EJA312 flight status page for this flight to view local times or setup timezone preferences in your user account.

Time Position Orientation Groundspeed Altitude Reporting Facility
EDT Latitude Longitude Course Direction KTS MPH feet Rate Location/Type
07:32AM 29.6175 -95.2601 156° South 184 212 2,300  Level FlightAware ADS-B
07:33AM 29.6013 -95.2516 156° South 192 221 3,700 4,105 Climbing FlightAware ADS-B
07:33AM 29.5865 -95.2436 155° Southeast 195 224 4,900 3,500 Climbing FlightAware ADS-B
07:34AM 29.5666 -95.2073 122° Southeast 231 266 7,200 3,387 Climbing FlightAware ADS-B
07:34AM 29.5714 -95.1826 77° East 243 280 8,400 3,533 Climbing FlightAware ADS-B
07:35AM 29.5889 -95.0909 78° East 265 305 12,500 3,180 Climbing FlightAware ADS-B
07:36AM 29.5968 -95.0473 78° East 294 338 13,700 2,522 Climbing FlightAware ADS-B
07:36AM 29.6079 -94.9848 78° East 321 369 15,400 2,657 Climbing FlightAware ADS-B
07:37AM 29.6149 -94.9316 81° East 331 381 16,800 2,754 Climbing FlightAware ADS-B
07:37AM 29.6158 -94.8780 89° East 340 391 18,200 2,459 Climbing FlightAware ADS-B
07:38AM 29.6169 -94.8209 89° East 359 413 19,300 2,366 Climbing FlightAware ADS-B
07:39AM 29.6183 -94.7428 89° East 371 427 21,000 2,486 Climbing FlightAware ADS-B
07:39AM 29.6200 -94.6836 88° East 377 434 22,200 2,100 Climbing FlightAware ADS-B
07:40AM 29.6215 -94.6219 88° East 390 449 23,100 1,800 Climbing FlightAware ADS-B
07:40AM 29.6234 -94.5598 88° East 398 458 24,000 1,935 Climbing FlightAware ADS-B
07:41AM 29.6255 -94.4898 88° East 402 463 25,100 1,839 Climbing FlightAware ADS-B
07:41AM 29.6270 -94.4261 88° East 413 475 25,900 1,859 Climbing FlightAware ADS-B
07:42AM 29.6292 -94.3343 88° East 413 475 27,300 1,769 Climbing FlightAware ADS-B
07:42AM 29.6312 -94.2527 88° East 428 493 28,200 1,765 Climbing FlightAware ADS-B
07:44AM 29.6162 -94.0703 95° East 415 478 30,800 1,930 Climbing FlightAware ADS-B
07:44AM 29.6119 -94.0283 95° East 424 488 31,900 1,213 Climbing Houston Center
07:45AM 29.5964 -93.8981 98° East 418 481 32,700 1,091 Climbing Houston Center
07:46AM 29.5803 -93.7603 98° East 434 499 34,100 1,190 Climbing Houston Center
07:47AM 29.5633 -93.6197 98° East 444 511 35,100 1,377 Climbing Houston Center
07:48AM 29.5456 -93.4742 98° East 458 527 36,900 1,623 Climbing Houston Center
07:49AM 29.5292 -93.3356 98° East 446 513 38,400 1,377 Climbing Houston Center
07:50AM 29.5086 -93.1681 98° East 445 512 39,700 1,230 Climbing Houston Center
07:51AM 29.4917 -93.0264 98° East 449 517 40,900 639 Climbing Houston Center
07:52AM 29.4736 -92.8819 98° East 457 526 41,000 49 Climbing Houston Center
07:54AM 29.4542 -92.7283 98° East 483 556 41,000  Level Houston Center
07:55AM 29.4342 -92.5711 98° East 497 572 41,000  Level Houston Center
07:56AM 29.4131 -92.4069 98° East 517 595 41,000  Level Houston Center
07:57AM 29.3917 -92.2425 98° East 522 601 41,000  Level Houston Center
07:58AM 29.3708 -92.0750 98° East 530 610 41,000  Level Houston Center
07:59AM 29.3503 -91.9122 98° East 522 601 41,000  Level Houston Center
08:00AM 29.3275 -91.7500 99° East 516 594 41,000  Level Houston Center
08:01AM 29.3044 -91.5706 98° East 517 595 41,000  Level Houston Center
08:02AM 29.2819 -91.4108 99° East 512 589 41,000  Level Houston Center
08:03AM 29.2594 -91.2497 99° East 514 592 41,000  Level Houston Center
08:04AM 29.2367 -91.0889 99° East 513 590 41,000  Level Houston Center
08:05AM 29.2158 -90.9294 98° East 510 587 41,000  Level Houston Center
08:06AM 29.1922 -90.7694 100° East 512 589 41,000  Level Houston Center
08:07AM 29.1664 -90.5797 99° East 508 585 41,000  Level Houston Center
08:08AM 29.1431 -90.4197 99° East 512 589 41,000  Level Houston Center
08:09AM 29.1181 -90.2581 100° East 517 595 41,000  Level Houston Center
08:10AM 29.0961 -90.0975 99° East 516 594 41,000  Level Houston Center
08:11AM 29.0714 -89.9389 100° East 512 589 41,000  Level Houston Center
08:12AM 29.0475 -89.7794 100° East 512 589 41,000  Level Houston Center
08:13AM 29.0242 -89.6197 99° East 512 589 41,000  Level Houston Center
08:14AM 28.9997 -89.4583 100° East 517 595 41,000  Level Houston Center
08:15AM 28.9764 -89.3003 100° East 511 588 41,000  Level Houston Center
08:16AM 28.9475 -89.1106 100° East 508 585 41,000  Level Houston Center
08:17AM 28.9219 -88.9522 100° East 509 586 41,000  Level Houston Center
08:18AM 28.8978 -88.7953 100° East 505 581 41,000  Level Houston Center
08:19AM 28.8672 -88.6406 103° East 506 582 41,000  Level Houston Center
08:20AM 28.8239 -88.4900 108° East 502 578 41,000  Level Houston Center
08:21AM 28.7828 -88.3394 107° East 501 577 41,000  Level Houston Center
08:22AM 28.7406 -88.1892 108° East 500 575 41,000  Level Houston Center
08:23AM 28.6922 -88.0161 108° East 501 577 41,000  Level Houston Center
08:24AM 28.6497 -87.8658 108° East 502 578 41,000  Level Houston Center
08:25AM 28.6083 -87.7164 107° East 499 574 41,000  Level Houston Center
08:26AM 28.5661 -87.5678 108° East 497 572 41,000  Level Houston Center
08:27AM 28.5231 -87.4197 108° East 496 571 41,000  Level Houston Center
08:28AM 28.4803 -87.2706 108° East 497 572 41,000  Level Houston Center
08:29AM 28.4289 -87.0947 108° East 492 566 41,000  Level Houston Center
08:30AM 28.4147 -87.0389 106° East 497 572 41,000  Level Jacksonville Center
08:31AM 28.3714 -86.8933 109° East 491 565 41,000  Level Jacksonville Center
08:32AM 28.3281 -86.7431 108° East 491 565 41,000  Level Jacksonville Center
08:33AM 28.2842 -86.6025 109° East 484 557 41,000  Level Jacksonville Center
08:34AM 28.2425 -86.4572 108° East 490 564 41,000  Level Jacksonville Center
08:35AM 28.1967 -86.3003 108° East 493 567 41,000  Level Jacksonville Center
08:36AM 28.1544 -86.1597 109° East 486 559 41,000  Level Jacksonville Center
08:37AM 28.1100 -86.0103 109° East 492 566 41,000  Level Jacksonville Center
08:39AM 28.0281 -85.7336 108° East 490 564 41,000  Level Miami Center
08:40AM 27.9850 -85.5869 108° East 496 571 41,000  Level Miami Center
08:41AM 27.9397 -85.4406 109° East 496 571 41,000  Level Miami Center
08:42AM 27.8942 -85.2964 110° East 496 571 41,000  Level Miami Center
08:43AM 27.8589 -85.1483 105° East 496 571 41,000  Level Miami Center
08:44AM 27.8278 -85.0008 103° East 489 563 41,000  Level Miami Center
08:45AM 27.7775 -84.8567 111° Southeast 489 563 41,000 -350 Level Miami Center
08:46AM 27.7225 -84.7217 115° Southeast 477 549 40,300 -1,200 Descending Miami Center
08:47AM 27.6631 -84.5864 116° Southeast 477 549 38,600 -1,600 Descending Miami Center
08:48AM 27.6011 -84.4581 119° Southeast 478 550 37,100 -800 Descending Miami Center
08:49AM 27.5394 -84.3253 118° Southeast 467 537 37,000 -50 Descending Miami Center
08:50AM 27.4833 -84.1978 116° Southeast 472 543 37,000  Level Miami Center
08:51AM 27.4211 -84.0653 118° Southeast 472 543 37,000  Level Miami Center
08:52AM 27.3631 -83.9333 116° Southeast 472 543 37,000  Level Miami Center
08:53AM 27.3028 -83.8011 117° Southeast 472 543 37,000 -450 Level Miami Center
08:54AM 27.2422 -83.6717 118° Southeast 472 543 36,100 -1,700 Descending Miami Center
08:55AM 27.1814 -83.5419 118° Southeast 472 543 33,600 -2,450 Descending Miami Center
08:56AM 27.1247 -83.4175 117° Southeast 467 537 31,200 -2,400 Descending Miami Center
08:57AM 27.0656 -83.2908 118° Southeast 462 532 28,800 -2,450 Descending Miami Center
08:58AM 27.0047 -83.1617 118° Southeast 462 532 26,300 -2,750 Descending Miami Center
08:59AM 26.9419 -83.0186 116° Southeast 472 543 23,300 -2,650 Descending Miami Center
09:00AM 26.8844 -82.8969 118° Southeast 461 531 21,000 -2,300 Descending Miami Center
09:01AM 26.8286 -82.7844 119° Southeast 446 513 18,700 -2,150 Descending Miami Center
09:02AM 26.7747 -82.6703 118° Southeast 419 482 16,700 -2,100 Descending Miami Center
09:03AM 26.7247 -82.5608 117° Southeast 408 470 14,500 -2,050 Descending Miami Center
09:04AM 26.6764 -82.4611 118° Southeast 403 464 12,600 -1,700 Descending Miami Center
09:05AM 26.6197 -82.3631 123° Southeast 397 457 11,100 -800 Descending Miami Center
09:06AM 26.5344 -82.3011 147° Southeast 364 419 11,000 -650 Descending Miami Center
09:07AM 26.4489 -82.2392 147° Southeast 344 396 9,800 -2,000 Descending Miami Center
09:08AM 26.3819 -82.1897 147° Southeast 306 352 7,000 -1,950 Descending Miami Center
09:09AM 26.3211 -82.1431 145° Southeast 275 316 5,900 -1,650 Descending Miami Center
09:10AM 26.2733 -82.0783 129° Southeast 264 304 3,700 -1,450 Descending Miami Center
09:11AM 26.2336 -82.0211 128° Southeast 253 291 3,000 -700 Descending Miami Center
09:13AM 26.0960 -81.9016 66° East  Level FlightAware Approximate
09:20AM 26.1500 -81.7667 66° East  Level FlightAware Approximate
09:21AM 26.1524 -81.7756 66° East  Level Estimated
09:22AM 26.1524 -81.7756 66° East  Level Estimated
09:23AM 26.1524 -81.7756 66° East  Level Estimated
09:24AM 26.1524 -81.7756 66° East  Level Estimated
09:25AM 26.1524 -81.7756 66° East  Level Estimated
09:26AM 26.1524 -81.7756 66° East  Level Estimated
09:27AM 26.1524 -81.7756 66° East  Level Estimated
09:28AM 26.1524 -81.7756 66° East  Level Estimated